Douglas, WY

12:45 PM MDT on May 25, 2017 (GMT -0600)
Converse County

Weather History for KDGW - November, 2011

Change the Weather History Date:

Wednesday, November 2, 2011

  Actual Average Record
Temperature  
Mean Temperature 17 °F 40 °F  
Max Temperature 29 °F 54 °F 74 °F (2008)
Min Temperature 4 °F 25 °F 1 °F (1999)
Degree Days  
Heating Degree Days 48 25  
Month to date heating degree days 79 50  
Since 1 July heating degree days 765 917  
Cooling Degree Days 0 0  
Month to date cooling degree days 0 0  
Year to date cooling degree days 641 486  
Moisture  
Dew Point 14 °F    
Average Humidity 87    
Maximum Humidity 96    
Minimum Humidity 77    
Precipitation  
Precipitation T in 0.03 in 0.57 in (1987)
Month to date precipitation 0.21 0.06  
Year to date precipitation 12.88 12.40  
Sea Level Pressure  
Sea Level Pressure 30.46 in    
Wind  
Wind Speed 6 mph (NW)    
Max Wind Speed 16 mph    
Max Gust Speed 21 mph    
Visibility 7 miles    
Events Fog , Snow    
T = Trace of Precipitation, MM = Missing Value Source: NWS Daily Summary

Daily Weather History Graph

Daily Weather History Graph

Search for Another Location

Airport or City:

Trip Planner

Search our weather history database for the weather conditions in past years. The results will help you decide how hot, cold, wet, or windy it might be!

Date:

Astronomy

Nov. 02, 2011 Rise Set
Actual Time 7:36 AM MDT 5:52 PM MDT
Civil Twilight 7:07 AM MDT 6:22 PM MDT
Nautical Twilight 6:33 AM MDT 6:55 PM MDT
Astronomical Twilight 6:00 AM MDT 7:28 PM MDT
Moon 1:57 PM MDT (11/2) No Moon Set
Length of Visible Light 11h 15m
Length of Day
10h 16m
Waxing Crescent, 51% of the Moon is Illuminated
Nov 2
Waxing Crescent
Nov 10
Full
Nov 18
Last Quarter
Nov 24
New
Dec 2
First Quarter

Hourly Weather History & Observations

Time (MDT) Temp. Windchill Dew Point Humidity Pressure Visibility Wind Dir Wind Speed Gust Speed Precip Events Conditions
12:05 AM 28.4 °F 19.1 °F 26.6 °F 93% 30.30 in 4.0 mi North 10.4 mph - 0.00 in Snow Light Snow
12:12 AM 28.4 °F 19.7 °F 26.6 °F 93% 30.30 in 5.0 mi North 9.2 mph - 0.00 in Snow Light Snow
1:03 AM 28.4 °F 18.0 °F 24.8 °F 86% 30.33 in 9.0 mi North 12.7 mph - 0.00 in   Mostly Cloudy
1:53 AM 28.0 °F 17.0 °F 24.1 °F 85% 30.43 in 10.0 mi North 13.8 mph - 0.00 in   Overcast
2:01 AM 28.4 °F 18.0 °F 24.8 °F 86% 30.34 in 10.0 mi North 12.7 mph - N/A   Overcast
2:53 AM 28.0 °F 17.0 °F 24.1 °F 85% 30.45 in 10.0 mi North 13.8 mph - N/A   Overcast
3:53 AM 27.0 °F 16.1 °F 23.0 °F 85% 30.48 in 10.0 mi NNW 12.7 mph - N/A   Overcast
4:53 AM 23.0 °F 14.7 °F 19.9 °F 88% 30.51 in 10.0 mi NW 6.9 mph - N/A   Clear
5:53 AM 17.1 °F 11.7 °F 14.0 °F 88% 30.56 in 10.0 mi WNW 3.5 mph - N/A   Clear
6:53 AM 16.0 °F 6.3 °F 12.9 °F 88% 30.59 in 10.0 mi NNW 6.9 mph - N/A   Clear
7:53 AM 12.9 °F 3.8 °F 10.9 °F 92% 30.63 in 10.0 mi North 5.8 mph - N/A   Clear
8:53 AM 16.0 °F 5.3 °F 12.0 °F 84% 30.62 in 10.0 mi NNW 8.1 mph - N/A   Clear
9:53 AM 18.0 °F 5.4 °F 15.1 °F 88% 30.63 in 10.0 mi NW 11.5 mph - N/A   Clear
11:02 AM 19.4 °F 8.6 °F 17.6 °F 93% 30.48 in 8.0 mi WNW 9.2 mph - N/A   Mostly Cloudy
12:09 PM 21.2 °F 13.6 °F 19.4 °F 93% 30.46 in 10.0 mi WNW 5.8 mph - N/A   Partly Cloudy
12:53 PM 23.0 °F - 21.0 °F 92% 30.56 in 10.0 mi Calm Calm - 0.10 in   Clear
1:53 PM 25.0 °F - 19.9 °F 81% 30.53 in 10.0 mi Calm Calm - 0.08 in   Clear
2:53 PM 27.0 °F - 21.9 °F 81% 30.51 in 10.0 mi Calm Calm - N/A   Clear
3:53 PM 27.0 °F 23.0 °F 21.9 °F 81% 30.51 in 10.0 mi SSW 3.5 mph - N/A   Clear
4:53 PM 25.0 °F 19.3 °F 19.9 °F 81% 30.53 in 10.0 mi SSW 4.6 mph - N/A   Clear
5:53 PM 21.9 °F 13.4 °F 16.0 °F 78% 30.54 in 10.0 mi SW 6.9 mph - N/A   Clear
6:53 PM 19.0 °F 11.1 °F 15.1 °F 85% 30.57 in 10.0 mi South 5.8 mph - N/A   Clear
7:53 PM 12.9 °F 5.2 °F 10.0 °F 88% 30.59 in 10.0 mi SE 4.6 mph - N/A   Clear
8:53 PM 12.9 °F 6.9 °F 9.0 °F 84% 30.57 in 10.0 mi SSE 3.5 mph - N/A   Clear
9:38 PM 10.4 °F - 6.8 °F 85% 30.35 in 1.8 mi Calm Calm - N/A   Haze
9:45 PM 10.4 °F - 6.8 °F 85% 30.34 in 2.0 mi Calm Calm - N/A   Clear
9:48 PM 8.6 °F - 6.8 °F 92% 30.34 in 1.0 mi Calm Calm - N/A   Clear
9:53 PM 10.9 °F - 8.1 °F 88% 30.56 in 1.0 mi Calm Calm - N/A   Clear
9:58 PM 8.6 °F - 6.8 °F 92% 30.34 in 2.5 mi Calm Calm - N/A   Clear
10:05 PM 6.8 °F - 3.2 °F 85% 30.34 in 10.0 mi Calm Calm - N/A   Clear
10:20 PM 8.6 °F - 5.0 °F 85% 30.34 in 1.2 mi Calm Calm - N/A   Clear
10:22 PM 6.8 °F - 3.2 °F 85% 30.34 in 0.8 mi Calm Calm - N/A   Clear
10:31 PM 6.8 °F - 3.2 °F 85% 30.34 in 0.2 mi Calm Calm - N/A Fog Light Freezing Fog
10:53 PM 9.0 °F - 3.9 °F 80% 30.55 in 0.2 mi Calm Calm - N/A   Haze
11:33 PM 6.8 °F - 1.4 °F 79% 30.32 in 1.5 mi Calm Calm - N/A   Haze
11:49 PM 6.8 °F - 3.2 °F 85% 30.32 in 3.0 mi Calm Calm - N/A   Clear
11:53 PM 5.0 °F - 1.9 °F 87% 30.53 in 8.0 mi Calm Calm - N/A   Clear